This demonstration page uses our WeatherBlox Daily Observations layout. Learn more.

Left ArrowRight Arrow

44.8408, -93.29828

Hourly Observations for October 2, 2021

Temp ( °F °C ) Dew Point ( °F °C ) Humidity (%) Winds ( mph kmh ) Pressure ( in mb ) Visibility ( mi km ) Precip ( " mm )
12:04 am 00:04 Cloudy 68 20 64 17.8 87 87 SSE 7 11 29.95 1014 10 16 N/A
12:53 am 00:53 Mostly Cloudy 68 20 64 17.8 87 87 SSE 5 7 29.95 1014 10 16 N/A
1:42 am 01:42 Cloudy 68 20 65 18.3 90 90 S 7 11 29.93 1013 10 16 N/A
1:53 am 01:53 Cloudy 68 20 65 18.3 90 90 S 7 11 29.94 1014 10 16 N/A
2:49 am 02:49 Cloudy 68 20 64 18 88 88 SSW 3 6 29.92 1013 10 16 N/A
2:53 am 02:53 Cloudy 68 20 65 18.3 90 90 SSW 5 7 29.93 1014 10 16 N/A
3:10 am 03:10 Cloudy 68 20 65 18.3 90 90 S 5 7 29.93 1013 10 16 N/A
3:18 am 03:18 Cloudy 68 20 65 18.3 90 90 S 3 6 29.93 1013 10 16 N/A
3:44 am 03:44 Cloudy 68 20 65 18.3 90 90 S 5 7 29.92 1013 9 14 N/A
3:53 am 03:53 Cloudy 68 20 65 18.3 90 90 SSW 3 6 29.93 1013 9 14 N/A
4:53 am 04:53 Cloudy 67 19.4 65 18.3 93 93 SW 5 7 29.93 1013 8 13 N/A
5:00 am 05:00 Cloudy 67 19.4 65 18.3 93 93 SW 7 11 29.92 1013 8 13 N/A
5:31 am 05:31 Cloudy 67 19.4 65 18.3 93 93 SSW 7 11 29.92 1013 9 14 N/A
5:53 am 05:53 Cloudy 67 19.4 65 18.3 93 93 SW 8 13 29.92 1013 10 16 N/A
6:53 am 06:53 Cloudy 67 19.4 65 18.3 93 93 SW 6 9 29.91 1013 10 16 N/A
7:53 am 07:53 Cloudy 67 19.4 65 18.3 93 93 SSW 5 7 29.91 1013 10 16 N/A
8:53 am 08:53 Cloudy with Mist and Fog 67 19.4 65 18.3 93 93 SW 6 9 29.91 1013 4 6 N/A
9:53 am 09:53 Cloudy 68 20 64 17.8 87 87 SW 9 15 29.91 1013 10 16 N/A
10:53 am 10:53 Cloudy with Mist and Fog 68 20 65 18.3 90 90 WSW 7 11 29.91 1013 6 10 N/A
11:53 am 11:53 Cloudy 69 20.6 64 17.8 84 84 SSW 7 11 29.91 1013 9 14 N/A
12:06 pm 12:06 Cloudy 69 20.6 64 17.8 84 84 SW 7 11 29.89 1012 9 14 N/A
12:53 pm 12:53 Cloudy 70 21.1 64 17.8 82 82 SSW 6 9 29.90 1012 9 14 N/A
1:01 pm 13:01 Cloudy 70 21.1 64 17.8 82 82 S 5 7 29.87 1012 9 14 N/A
1:53 pm 13:53 Cloudy with Light Rain 70 21.1 66 18.9 87 87 N N/A 29.88 1012 10 16 0.00 0.00
2:53 pm 14:53 Cloudy 73 22.8 66 18.9 79 79 N 3 6 29.86 1011 10 16 0.00 0.00
3:31 pm 15:31 Cloudy with Light Rain 69 20.6 66 18.9 90 90 NNW 13 20 29.85 1011 7 11 0.00 0.00
3:42 pm 15:42 Cloudy with Heavy Rain 67 19.4 66 18.9 97 97 N 5 7 29.85 1011 4 6 0.16 4.06
3:53 pm 15:53 Cloudy with Light Rain 67 19.4 66 18.9 97 97 NW 3 6 29.86 1011 6 10 0.23 5.84
4:05 pm 16:05 Cloudy with Light Rain 67 19.4 66 18.9 97 97 NW 6 9 29.86 1011 6 10 0.00 0.00
4:11 pm 16:11 Cloudy with Light Rain 68 20 66 18.9 93 93 WNW 3 6 29.86 1011 6 10 0.00 0.00
4:53 pm 16:53 Cloudy with Light Rain 68 20 66 18.9 93 93 W 3 6 29.87 1011 6 10 0.00 0.00
5:33 pm 17:33 Cloudy with Light Rain 68 20 66 18.9 93 93 N N/A 29.85 1011 6 10 0.02 0.51
5:53 pm 17:53 Cloudy with Drizzle 68 20 66 18.9 93 93 W 3 6 29.86 1011 7 11 0.03 0.76
6:34 pm 18:34 Mostly Cloudy 67 19.4 66 18.9 97 97 NW 8 13 29.85 1011 7 11 0.00 0.00
6:53 pm 18:53 Mostly Cloudy 67 19.4 66 18.9 97 97 NW 8 13 29.86 1011 7 11 0.00 0.00
7:53 pm 19:53 Cloudy with Light Rain 67 19.4 66 18.9 97 97 WNW 8 13 29.87 1011 7 11 0.00 0.00
8:15 pm 20:15 Cloudy 67 19.4 65 18.3 93 93 NNW 8 13 29.86 1011 8 13 0.00 0.00
8:23 pm 20:23 Cloudy 67 19.4 65 18.3 93 93 NNW 9 15 29.86 1011 7 11 0.00 0.00
8:44 pm 20:44 Cloudy with Light Rain 66 18.9 64 17.8 93 93 N 7 11 29.86 1011 7 11 0.00 0.00
8:53 pm 20:53 Cloudy with Light Rain 66 18.9 64 17.8 93 93 N 7 11 29.87 1012 10 16 0.00 0.00
9:00 pm 21:00 Cloudy 66 18.9 65 18.3 96 96 N 7 11 29.86 1011 10 16 0.00 0.00
9:53 pm 21:53 Cloudy 66 18.9 64 17.8 93 93 NNW 8 13 29.88 1012 10 16 0.00 0.00
10:23 pm 22:23 Cloudy 66 18.9 64 17.8 93 93 NNW 9 15 29.87 1012 10 16 N/A
10:53 pm 22:53 Cloudy 66 18.9 63 17.2 90 90 N 9 15 29.89 1012 10 16 N/A
11:53 pm 23:53 Cloudy 65 18.3 62 16.7 90 90 NNW 10 17 29.89 1012 10 16 N/A

Powered by AerisWeather